Year,Month,Day,Hour,Minute,Value (Times are PST for barometer in hPa)
2011,11,23,00,00,991.51
2011,11,23,00,01,991.50
2011,11,23,00,02,991.50
2011,11,23,00,03,991.50
2011,11,23,00,04,991.53
2011,11,23,00,05,991.57
2011,11,23,00,06,991.60
2011,11,23,00,07,991.57
2011,11,23,00,08,991.53
2011,11,23,00,09,991.59
2011,11,23,00,10,991.60
2011,11,23,00,11,991.57
2011,11,23,00,12,991.50
2011,11,23,00,13,991.50
2011,11,23,00,14,991.47
2011,11,23,00,15,991.43
2011,11,23,00,16,991.43
2011,11,23,00,17,991.43
2011,11,23,00,18,991.37
2011,11,23,00,19,991.37
2011,11,23,00,20,991.37
2011,11,23,00,21,991.40
2011,11,23,00,22,991.40
2011,11,23,00,23,991.37
2011,11,23,00,24,991.40
2011,11,23,00,25,991.37
2011,11,23,00,26,991.27
2011,11,23,00,27,991.30
2011,11,23,00,28,991.24
2011,11,23,00,29,991.17
2011,11,23,00,30,991.16
2011,11,23,00,31,991.16
2011,11,23,00,32,991.16
2011,11,23,00,33,991.20
2011,11,23,00,34,991.20
2011,11,23,00,35,991.20
2011,11,23,00,36,991.16
2011,11,23,00,37,991.16
2011,11,23,00,38,991.16
2011,11,23,00,39,991.13
2011,11,23,00,40,991.13
2011,11,23,00,41,991.09
2011,11,23,00,42,991.09
2011,11,23,00,43,991.09
2011,11,23,00,44,991.09
2011,11,23,00,45,991.09
2011,11,23,00,46,991.15
2011,11,23,00,47,991.16
2011,11,23,00,48,991.10
2011,11,23,00,49,991.09
2011,11,23,00,50,991.13
2011,11,23,00,51,991.09
2011,11,23,00,52,991.13
2011,11,23,00,53,991.16
2011,11,23,00,54,991.16
2011,11,23,00,55,991.09
2011,11,23,00,56,991.04
2011,11,23,00,57,990.97
2011,11,23,00,58,991.02
2011,11,23,00,59,991.09
2011,11,23,01,00,991.09
2011,11,23,01,01,991.04
2011,11,23,01,02,991.03
2011,11,23,01,03,991.03
2011,11,23,01,04,990.99
2011,11,23,01,05,990.94
2011,11,23,01,06,990.96
2011,11,23,01,07,990.99
2011,11,23,01,08,990.99
2011,11,23,01,09,990.94
2011,11,23,01,10,990.98
2011,11,23,01,11,991.03
2011,11,23,01,12,990.97
2011,11,23,01,13,990.99
2011,11,23,01,14,990.99
2011,11,23,01,15,990.99
2011,11,23,01,16,990.99
2011,11,23,01,17,990.99
2011,11,23,01,18,990.96
2011,11,23,01,19,990.99
2011,11,23,01,20,990.99
2011,11,23,01,21,991.03
2011,11,23,01,22,991.06
2011,11,23,01,23,991.03
2011,11,23,01,24,991.06
2011,11,23,01,25,991.06
2011,11,23,01,26,991.09
2011,11,23,01,27,991.13
2011,11,23,01,28,991.09
2011,11,23,01,29,991.13
2011,11,23,01,30,991.16
2011,11,23,01,31,991.20
2011,11,23,01,32,991.23
2011,11,23,01,33,991.23
2011,11,23,01,34,991.21
2011,11,23,01,35,991.29
2011,11,23,01,36,991.26
2011,11,23,01,37,991.23
2011,11,23,01,38,991.30
2011,11,23,01,39,991.33
2011,11,23,01,40,991.37
2011,11,23,01,41,991.33
2011,11,23,01,42,991.37
2011,11,23,01,43,991.37
2011,11,23,01,44,991.40
2011,11,23,01,45,991.40
2011,11,23,01,46,991.40
2011,11,23,01,47,991.33
2011,11,23,01,48,991.27
2011,11,23,01,49,991.26
2011,11,23,01,50,991.30
2011,11,23,01,51,991.30
2011,11,23,01,52,991.30
2011,11,23,01,53,991.42
2011,11,23,01,54,991.43
2011,11,23,01,55,991.40
2011,11,23,01,56,991.40
2011,11,23,01,57,991.40
2011,11,23,01,58,991.37
2011,11,23,01,59,991.42
2011,11,23,02,00,991.43
2011,11,23,02,01,991.40
2011,11,23,02,02,991.43
2011,11,23,02,03,991.40
2011,11,23,02,04,991.40
2011,11,23,02,05,991.37
2011,11,23,02,06,991.31
2011,11,23,02,07,991.30
2011,11,23,02,08,991.30
2011,11,23,02,09,991.30
2011,11,23,02,10,991.26
2011,11,23,02,11,991.32
2011,11,23,02,12,991.33
2011,11,23,02,13,991.36
2011,11,23,02,14,991.37
2011,11,23,02,15,991.37
2011,11,23,02,16,991.33
2011,11,23,02,17,991.33
2011,11,23,02,18,991.33
2011,11,23,02,19,991.39
2011,11,23,02,20,991.40
2011,11,23,02,21,991.40
2011,11,23,02,22,991.43
2011,11,23,02,23,991.43
2011,11,23,02,24,991.43
2011,11,23,02,25,991.47
2011,11,23,02,26,991.50
2011,11,23,02,27,991.53
2011,11,23,02,28,991.50
2011,11,23,02,29,991.53
2011,11,23,02,30,991.50
2011,11,23,02,31,991.56
2011,11,23,02,32,991.60
2011,11,23,02,33,991.66
2011,11,23,02,34,991.67
2011,11,23,02,35,991.73
2011,11,23,02,36,991.77
2011,11,23,02,37,991.71
2011,11,23,02,38,991.67
2011,11,23,02,39,991.70
2011,11,23,02,40,991.70
2011,11,23,02,41,991.67
2011,11,23,02,42,991.64
2011,11,23,02,43,991.64
2011,11,23,02,44,991.64
2011,11,23,02,45,991.60
2011,11,23,02,46,991.60
2011,11,23,02,47,991.67
2011,11,23,02,48,991.70
2011,11,23,02,49,991.67
2011,11,23,02,50,991.70
2011,11,23,02,51,991.70
2011,11,23,02,52,991.74
2011,11,23,02,53,991.74
2011,11,23,02,54,991.77
2011,11,23,02,55,991.83
2011,11,23,02,56,991.78
2011,11,23,02,57,991.74
2011,11,23,02,58,991.68
2011,11,23,02,59,991.61
2011,11,23,03,00,991.64
2011,11,23,03,01,991.64
2011,11,23,03,02,991.67
2011,11,23,03,06,991.53
2011,11,23,03,07,991.47
2011,11,23,03,08,991.43
2011,11,23,03,09,991.47
2011,11,23,03,10,991.50
2011,11,23,03,11,991.50
2011,11,23,03,12,991.47
2011,11,23,03,13,991.50
2011,11,23,03,14,991.47
2011,11,23,03,15,991.50
2011,11,23,03,16,991.60
2011,11,23,03,17,991.60
2011,11,23,03,18,991.64
2011,11,23,03,19,991.60
2011,11,23,03,20,991.60
2011,11,23,03,21,991.53
2011,11,23,03,22,991.50
2011,11,23,03,23,991.47
2011,11,23,03,24,991.43
2011,11,23,03,25,991.47
2011,11,23,03,26,991.57
2011,11,23,03,27,991.57
2011,11,23,03,28,991.64
2011,11,23,03,29,991.60
2011,11,23,03,30,991.53
2011,11,23,03,31,991.60
2011,11,23,03,32,991.64
2011,11,23,03,33,991.64
2011,11,23,03,34,991.64
2011,11,23,03,35,991.53
2011,11,23,03,36,991.57
2011,11,23,03,37,991.53
2011,11,23,03,38,991.64
2011,11,23,03,39,991.60
2011,11,23,03,40,991.57
2011,11,23,03,41,991.53
2011,11,23,03,42,991.53
2011,11,23,03,43,991.53
2011,11,23,03,44,991.50
2011,11,23,03,45,991.57
2011,11,23,03,46,991.60
2011,11,23,03,47,991.64
2011,11,23,03,48,991.64
2011,11,23,03,49,991.70
2011,11,23,03,50,991.70
2011,11,23,03,51,991.67
2011,11,23,03,52,991.70
2011,11,23,03,53,991.70
2011,11,23,03,54,991.70
2011,11,23,03,55,991.70
2011,11,23,03,56,991.70
2011,11,23,03,57,991.67
2011,11,23,03,58,991.74
2011,11,23,03,59,991.67
2011,11,23,04,00,991.67
2011,11,23,04,01,991.70
2011,11,23,04,02,991.67
2011,11,23,04,03,991.67
2011,11,23,04,04,991.70
2011,11,23,04,05,991.67
2011,11,23,04,06,991.70
2011,11,23,04,07,991.77
2011,11,23,04,08,991.81
2011,11,23,04,09,991.84
2011,11,23,04,10,991.91
2011,11,23,04,11,991.87
2011,11,23,04,12,991.91
2011,11,23,04,13,991.94
2011,11,23,04,14,991.94
2011,11,23,04,15,991.94
2011,11,23,04,16,991.87
2011,11,23,04,17,991.87
2011,11,23,04,18,991.81
2011,11,23,04,19,991.84
2011,11,23,04,20,991.91
2011,11,23,04,21,992.04
2011,11,23,04,22,992.04
2011,11,23,04,23,992.08
2011,11,23,04,24,992.04
2011,11,23,04,25,991.94
2011,11,23,04,26,991.94
2011,11,23,04,27,991.94
2011,11,23,04,28,992.01
2011,11,23,04,29,992.04
2011,11,23,04,30,992.18
2011,11,23,04,31,992.18
2011,11,23,04,32,992.21
2011,11,23,04,33,992.25
2011,11,23,04,34,992.25
2011,11,23,04,35,992.25
2011,11,23,04,36,992.28
2011,11,23,04,37,992.31
2011,11,23,04,38,992.31
2011,11,23,04,39,992.28
2011,11,23,04,40,992.31
2011,11,23,04,41,992.28
2011,11,23,04,42,992.28
2011,11,23,04,43,992.28
2011,11,23,04,44,992.28
2011,11,23,04,45,992.28
2011,11,23,04,46,992.31
2011,11,23,04,47,992.38
2011,11,23,04,48,992.45
2011,11,23,04,49,992.48
2011,11,23,04,50,992.48
2011,11,23,04,51,992.48
2011,11,23,04,52,992.52
2011,11,23,04,53,992.58
2011,11,23,04,54,992.55
2011,11,23,04,55,992.58
2011,11,23,04,56,992.62
2011,11,23,04,57,992.62
2011,11,23,04,58,992.58
2011,11,23,04,59,992.52
2011,11,23,05,00,992.48
2011,11,23,05,01,992.48
2011,11,23,05,02,992.55
2011,11,23,05,03,992.58
2011,11,23,05,04,992.62
2011,11,23,05,05,992.65
2011,11,23,05,06,992.62
2011,11,23,05,07,992.58
2011,11,23,05,08,992.62
2011,11,23,05,09,992.62
2011,11,23,05,10,992.72
2011,11,23,05,11,992.72
2011,11,23,05,12,992.75
2011,11,23,05,13,992.86
2011,11,23,05,14,992.92
2011,11,23,05,15,992.99
2011,11,23,05,16,993.03
2011,11,23,05,17,993.06
2011,11,23,05,18,993.03
2011,11,23,05,19,993.09
2011,11,23,05,20,993.09
2011,11,23,05,21,993.09
2011,11,23,05,22,993.03
2011,11,23,05,23,993.06
2011,11,23,05,24,993.06
2011,11,23,05,25,993.09
2011,11,23,05,26,993.09
2011,11,23,05,27,993.13
2011,11,23,05,28,993.16
2011,11,23,05,29,993.19
2011,11,23,05,30,993.23
2011,11,23,05,31,993.23
2011,11,23,05,32,993.23
2011,11,23,05,33,993.19
2011,11,23,05,34,993.23
2011,11,23,05,35,993.26
2011,11,23,05,36,993.30
2011,11,23,05,37,993.30
2011,11,23,05,38,993.36
2011,11,23,05,39,993.36
2011,11,23,05,40,993.36
2011,11,23,05,41,993.33
2011,11,23,05,42,993.33
2011,11,23,05,43,993.40
2011,11,23,05,44,993.36
2011,11,23,05,45,993.40
2011,11,23,05,46,993.40
2011,11,23,05,47,993.49
2011,11,23,05,48,993.53
2011,11,23,05,49,993.53
2011,11,23,05,50,993.50
2011,11,23,05,51,993.50
2011,11,23,05,52,993.57
2011,11,23,05,53,993.53
2011,11,23,05,54,993.57
2011,11,23,05,55,993.57
2011,11,23,05,56,993.57
2011,11,23,05,57,993.53
2011,11,23,05,58,993.50
2011,11,23,05,59,993.50
2011,11,23,06,00,993.47
2011,11,23,06,01,993.50
2011,11,23,06,02,993.47
2011,11,23,06,03,993.50
2011,11,23,06,04,993.50
2011,11,23,06,05,993.57
2011,11,23,06,06,993.67
2011,11,23,06,07,993.60
2011,11,23,06,08,993.60
2011,11,23,06,09,993.63
2011,11,23,06,10,993.67
2011,11,23,06,11,993.70
2011,11,23,06,12,993.67
2011,11,23,06,13,993.63
2011,11,23,06,14,993.67
2011,11,23,06,15,993.74
2011,11,23,06,16,993.80
2011,11,23,06,17,993.80
2011,11,23,06,18,993.80
2011,11,23,06,19,993.80
2011,11,23,06,20,993.77
2011,11,23,06,21,993.70
2011,11,23,06,22,993.77
2011,11,23,06,23,993.77
2011,11,23,06,24,993.77
2011,11,23,06,25,993.84
2011,11,23,06,26,993.87
2011,11,23,06,27,993.87
2011,11,23,06,28,993.94
2011,11,23,06,29,993.97
2011,11,23,06,30,993.97
2011,11,23,06,31,993.97
2011,11,23,06,32,994.04
2011,11,23,06,33,994.11
2011,11,23,06,34,994.14
2011,11,23,06,35,994.14
2011,11,23,06,36,994.11
2011,11,23,06,37,994.07
2011,11,23,06,38,994.01
2011,11,23,06,39,994.01
2011,11,23,06,40,994.01
2011,11,23,06,41,994.01
2011,11,23,06,42,994.04
2011,11,23,06,43,994.07
2011,11,23,06,44,994.11
2011,11,23,06,45,994.11
2011,11,23,06,46,994.14
2011,11,23,06,47,994.14
2011,11,23,06,48,994.21
2011,11,23,06,49,994.18
2011,11,23,06,50,994.21
2011,11,23,06,51,994.21
2011,11,23,06,52,994.21
2011,11,23,06,53,994.28
2011,11,23,06,54,994.31
2011,11,23,06,55,994.35
2011,11,23,06,56,994.38
2011,11,23,06,57,994.38
2011,11,23,06,58,994.41
2011,11,23,06,59,994.38
2011,11,23,07,00,994.31
2011,11,23,07,01,994.31
2011,11,23,07,02,994.38
2011,11,23,07,03,994.38
2011,11,23,07,04,994.45
2011,11,23,07,05,994.48
2011,11,23,07,06,994.48
2011,11,23,07,07,994.55
2011,11,23,07,08,994.58
2011,11,23,07,09,994.62
2011,11,23,07,10,994.65
2011,11,23,07,11,994.68
2011,11,23,07,12,994.65
2011,11,23,07,13,994.72
2011,11,23,07,14,994.75
2011,11,23,07,15,994.82
2011,11,23,07,16,994.85
2011,11,23,07,17,994.92
2011,11,23,07,18,994.96
2011,11,23,07,19,995.02
2011,11,23,07,20,994.99
2011,11,23,07,21,994.96
2011,11,23,07,22,994.92
2011,11,23,07,23,994.92
2011,11,23,07,24,994.96
2011,11,23,07,25,994.96
2011,11,23,07,26,994.99
2011,11,23,07,27,995.06
2011,11,23,07,28,995.12
2011,11,23,07,29,995.16
2011,11,23,07,30,995.19
2011,11,23,07,31,995.23
2011,11,23,07,32,995.29
2011,11,23,07,33,995.33
2011,11,23,07,34,995.42
2011,11,23,07,35,995.46
2011,11,23,07,36,995.62
2011,11,23,07,37,995.60
2011,11,23,07,38,995.67
2011,11,23,07,39,995.70
2011,11,23,07,40,995.70
2011,11,23,07,41,995.63
2011,11,23,07,42,995.63
2011,11,23,07,43,995.63
2011,11,23,07,44,995.67
2011,11,23,07,45,995.70
2011,11,23,07,46,995.79
2011,11,23,07,47,995.84
2011,11,23,07,48,995.87
2011,11,23,07,49,995.84
2011,11,23,07,50,995.87
2011,11,23,07,51,995.80
2011,11,23,07,52,995.77
2011,11,23,07,53,995.80
2011,11,23,07,54,995.87
2011,11,23,07,55,995.90
2011,11,23,07,56,995.94
2011,11,23,07,57,995.97
2011,11,23,07,58,995.97
2011,11,23,07,59,995.94
2011,11,23,08,00,995.94
2011,11,23,08,01,995.94
2011,11,23,08,02,995.87
2011,11,23,08,03,995.94
2011,11,23,08,04,995.97
2011,11,23,08,05,996.01
2011,11,23,08,06,996.04
2011,11,23,08,07,996.07
2011,11,23,08,08,996.07
2011,11,23,08,09,996.11
2011,11,23,08,10,996.17
2011,11,23,08,11,996.17
2011,11,23,08,12,996.27
2011,11,23,08,13,996.28
2011,11,23,08,14,996.28
2011,11,23,08,15,996.33
2011,11,23,08,16,996.34
2011,11,23,08,17,996.41
2011,11,23,08,18,996.41
2011,11,23,08,19,996.41
2011,11,23,08,20,996.41
2011,11,23,08,21,996.45
2011,11,23,08,22,996.45
2011,11,23,08,23,996.51
2011,11,23,08,24,996.51
2011,11,23,08,25,996.58
2011,11,23,08,26,996.58
2011,11,23,08,27,996.67
2011,11,23,08,28,996.68
2011,11,23,08,29,996.61
2011,11,23,08,30,996.61
2011,11,23,08,31,996.58
2011,11,23,08,32,996.61
2011,11,23,08,33,996.65
2011,11,23,08,34,996.72
2011,11,23,08,35,996.78
2011,11,23,08,36,996.78
2011,11,23,08,37,996.89
2011,11,23,08,38,996.92
2011,11,23,08,39,996.95
2011,11,23,08,40,996.92
2011,11,23,08,41,996.95
2011,11,23,08,42,996.99
2011,11,23,08,43,997.02
2011,11,23,08,44,996.99
2011,11,23,08,45,996.99
2011,11,23,08,46,997.02
2011,11,23,08,47,997.09
2011,11,23,08,48,997.16
2011,11,23,08,49,997.19
2011,11,23,08,50,997.22
2011,11,23,08,51,997.26
2011,11,23,08,52,997.26
2011,11,23,08,53,997.26
2011,11,23,08,54,997.29
2011,11,23,08,55,997.36
2011,11,23,08,56,997.36
2011,11,23,08,57,997.39
2011,11,23,08,58,997.46
2011,11,23,08,59,997.50
2011,11,23,09,00,997.53
2011,11,23,09,01,997.53
2011,11,23,09,02,997.53
2011,11,23,09,03,997.53
2011,11,23,09,04,997.53
2011,11,23,09,05,997.56
2011,11,23,09,06,997.56
2011,11,23,09,07,997.53
2011,11,23,09,08,997.53
2011,11,23,09,09,997.53
2011,11,23,09,10,997.56
2011,11,23,09,11,997.60
2011,11,23,09,12,997.60
2011,11,23,09,13,997.66
2011,11,23,09,14,997.63
2011,11,23,09,15,997.66
2011,11,23,09,16,997.60
2011,11,23,09,17,997.60
2011,11,23,09,18,997.60
2011,11,23,09,19,997.56
2011,11,23,09,20,997.56
2011,11,23,09,21,997.60
2011,11,23,09,22,997.65
2011,11,23,09,23,997.70
2011,11,23,09,24,997.73
2011,11,23,09,25,997.73
2011,11,23,09,26,997.73
2011,11,23,09,27,997.73
2011,11,23,09,28,997.77
2011,11,23,09,29,997.73
2011,11,23,09,30,997.80
2011,11,23,09,31,997.83
2011,11,23,09,32,997.87
2011,11,23,09,33,997.87
2011,11,23,09,34,997.90
2011,11,23,09,35,997.90
2011,11,23,09,36,997.94
2011,11,23,09,37,997.90
2011,11,23,09,38,997.90
2011,11,23,09,39,997.90
2011,11,23,09,40,997.87
2011,11,23,09,41,997.90
2011,11,23,09,42,997.99
2011,11,23,09,43,998.07
2011,11,23,09,44,998.10
2011,11,23,09,45,998.10
2011,11,23,09,46,998.10
2011,11,23,09,47,998.07
2011,11,23,09,48,998.10
2011,11,23,09,49,998.10
2011,11,23,09,50,998.07
2011,11,23,09,51,998.07
2011,11,23,09,52,998.10
2011,11,23,09,53,998.10
2011,11,23,09,54,998.14
2011,11,23,09,55,998.21
2011,11,23,09,56,998.21
2011,11,23,09,57,998.24
2011,11,23,09,58,998.27
2011,11,23,09,59,998.31
2011,11,23,10,00,998.31
2011,11,23,10,01,998.27
2011,11,23,10,02,998.27
2011,11,23,10,03,998.37
2011,11,23,10,04,998.38
2011,11,23,10,05,998.41
2011,11,23,10,06,998.41
2011,11,23,10,07,998.48
2011,11,23,10,08,998.48
2011,11,23,10,09,998.54
2011,11,23,10,10,998.60
2011,11,23,10,11,998.65
2011,11,23,10,12,998.65
2011,11,23,10,13,998.68
2011,11,23,10,14,998.71
2011,11,23,10,15,998.71
2011,11,23,10,16,998.68
2011,11,23,10,17,998.78
2011,11,23,10,18,998.78
2011,11,23,10,19,998.78
2011,11,23,10,20,998.75
2011,11,23,10,21,998.75
2011,11,23,10,22,998.75
2011,11,23,10,23,998.71
2011,11,23,10,24,998.71
2011,11,23,10,25,998.75
2011,11,23,10,26,998.84
2011,11,23,10,27,998.85
2011,11,23,10,28,998.85
2011,11,23,10,29,998.88
2011,11,23,10,30,998.95
2011,11,23,10,31,998.95
2011,11,23,10,32,999.02
2011,11,23,10,33,999.09
2011,11,23,10,34,999.05
2011,11,23,10,35,999.09
2011,11,23,10,36,999.12
2011,11,23,10,37,999.18
2011,11,23,10,38,999.19
2011,11,23,10,39,999.22
2011,11,23,10,40,999.26
2011,11,23,10,41,999.29
2011,11,23,10,42,999.29
2011,11,23,10,43,999.26
2011,11,23,10,44,999.29
2011,11,23,10,45,999.29
2011,11,23,10,46,999.26
2011,11,23,10,47,999.26
2011,11,23,10,48,999.26
2011,11,23,10,49,999.29
2011,11,23,10,50,999.22
2011,11,23,10,51,999.26
2011,11,23,10,52,999.22
2011,11,23,10,53,999.26
2011,11,23,10,54,999.32
2011,11,23,10,55,999.32
2011,11,23,10,56,999.36
2011,11,23,10,57,999.36
2011,11,23,10,58,999.43
2011,11,23,10,59,999.36
2011,11,23,11,00,999.30
2011,11,23,11,01,999.29
2011,11,23,11,02,999.32
2011,11,23,11,03,999.36
2011,11,23,11,04,999.36
2011,11,23,11,05,999.48
2011,11,23,11,06,999.55
2011,11,23,11,07,999.53
2011,11,23,11,08,999.59
2011,11,23,11,09,999.59
2011,11,23,11,10,999.65
2011,11,23,11,11,999.66
2011,11,23,11,12,999.70
2011,11,23,11,13,999.66
2011,11,23,11,14,999.66
2011,11,23,11,15,999.63
2011,11,23,11,16,999.63
2011,11,23,11,17,999.59
2011,11,23,11,18,999.65
2011,11,23,11,19,999.66
2011,11,23,11,20,999.70
2011,11,23,11,21,999.66
2011,11,23,11,22,999.70
2011,11,23,11,23,999.70
2011,11,23,11,24,999.73
2011,11,23,11,25,999.70
2011,11,23,11,26,999.73
2011,11,23,11,27,999.70
2011,11,23,11,28,999.66
2011,11,23,11,29,999.72
2011,11,23,11,30,999.76
2011,11,23,11,31,999.73
2011,11,23,11,32,999.73
2011,11,23,11,33,999.70
2011,11,23,11,34,999.76
2011,11,23,11,35,999.76
2011,11,23,11,36,999.80
2011,11,23,11,37,999.83
2011,11,23,11,38,999.83
2011,11,23,11,39,999.83
2011,11,23,11,40,999.83
2011,11,23,11,41,999.89
2011,11,23,11,42,999.87
2011,11,23,11,43,999.87
2011,11,23,11,44,999.87
2011,11,23,11,45,999.90
2011,11,23,11,46,999.93
2011,11,23,11,47,999.99
2011,11,23,11,48,999.97
2011,11,23,11,49,1000.06
2011,11,23,11,50,1000.03
2011,11,23,11,51,1000.00
2011,11,23,11,52,999.97
2011,11,23,11,53,999.93
2011,11,23,11,54,999.90
2011,11,23,11,55,999.87
2011,11,23,11,56,999.87
2011,11,23,11,57,999.83
2011,11,23,11,58,999.87
2011,11,23,11,59,999.92
2011,11,23,12,00,999.97
2011,11,23,12,01,999.97
2011,11,23,12,02,999.97
2011,11,23,12,03,999.97
2011,11,23,12,04,1000.00
2011,11,23,12,05,1000.00
2011,11,23,12,06,1000.03
2011,11,23,12,07,1000.09
2011,11,23,12,08,1000.07
2011,11,23,12,09,1000.07
2011,11,23,12,10,1000.07
2011,11,23,12,11,1000.07
2011,11,23,12,12,1000.03
2011,11,23,12,13,1000.00
2011,11,23,12,14,1000.06
2011,11,23,12,15,1000.07
2011,11,23,12,16,1000.10
2011,11,23,12,17,1000.14
2011,11,23,12,18,1000.19
2011,11,23,12,19,1000.24
2011,11,23,12,20,1000.30
2011,11,23,12,21,1000.27
2011,11,23,12,22,1000.33
2011,11,23,12,23,1000.31
2011,11,23,12,24,1000.37
2011,11,23,12,25,1000.41
2011,11,23,12,26,1000.48
2011,11,23,12,27,1000.44
2011,11,23,12,28,1000.48
2011,11,23,12,29,1000.41
2011,11,23,12,30,1000.41
2011,11,23,12,31,1000.41
2011,11,23,12,32,1000.44
2011,11,23,12,33,1000.48
2011,11,23,12,34,1000.48
2011,11,23,12,35,1000.51
2011,11,23,12,36,1000.54
2011,11,23,12,37,1000.58
2011,11,23,12,38,1000.54
2011,11,23,12,39,1000.54
2011,11,23,12,40,1000.51
2011,11,23,12,41,1000.51
2011,11,23,12,42,1000.54
2011,11,23,12,43,1000.54
2011,11,23,12,44,1000.54
2011,11,23,12,45,1000.54
2011,11,23,12,46,1000.54
2011,11,23,12,47,1000.49
2011,11,23,12,48,1000.48
2011,11,23,12,49,1000.48
2011,11,23,12,50,1000.51
2011,11,23,12,51,1000.51
2011,11,23,12,52,1000.51
2011,11,23,12,53,1000.60
2011,11,23,12,54,1000.61
2011,11,23,12,55,1000.61
2011,11,23,12,56,1000.64
2011,11,23,12,57,1000.64
2011,11,23,12,58,1000.61
2011,11,23,12,59,1000.68
2011,11,23,13,00,1000.64
2011,11,23,13,01,1000.64
2011,11,23,13,02,1000.77
2011,11,23,13,03,1000.81
2011,11,23,13,04,1000.78
2011,11,23,13,05,1000.81
2011,11,23,13,06,1000.78
2011,11,23,13,07,1000.78
2011,11,23,13,08,1000.81
2011,11,23,13,09,1000.78
2011,11,23,13,10,1000.78
2011,11,23,13,11,1000.84
2011,11,23,13,12,1000.88
2011,11,23,13,13,1000.88
2011,11,23,13,14,1000.85
2011,11,23,13,15,1000.88
2011,11,23,13,16,1000.85
2011,11,23,13,17,1000.88
2011,11,23,13,18,1000.88
2011,11,23,13,19,1000.92
2011,11,23,13,20,1000.88
2011,11,23,13,21,1000.92
2011,11,23,13,22,1000.86
2011,11,23,13,23,1000.91
2011,11,23,13,24,1000.88
2011,11,23,13,25,1000.88
2011,11,23,13,26,1000.92
2011,11,23,13,27,1000.92
2011,11,23,13,28,1000.92
2011,11,23,13,29,1000.95
2011,11,23,13,30,1000.92
2011,11,23,13,31,1000.95
2011,11,23,13,32,1000.98
2011,11,23,13,33,1001.02
2011,11,23,13,34,1001.02
2011,11,23,13,35,1001.02
2011,11,23,13,36,1000.98
2011,11,23,13,37,1001.01
2011,11,23,13,38,1000.98
2011,11,23,13,39,1000.98
2011,11,23,13,40,1001.02
2011,11,23,13,41,1000.96
2011,11,23,13,42,1000.95
2011,11,23,13,43,1000.95
2011,11,23,13,44,1000.92
2011,11,23,13,45,1000.92
2011,11,23,13,46,1000.92
2011,11,23,13,47,1000.92
2011,11,23,13,48,1000.95
2011,11,23,13,49,1000.95
2011,11,23,13,50,1000.98
2011,11,23,13,51,1000.98
2011,11,23,13,52,1001.02
2011,11,23,13,53,1001.07
2011,11,23,13,54,1001.12
2011,11,23,13,55,1001.18
2011,11,23,13,56,1001.15
2011,11,23,13,57,1001.15
2011,11,23,13,58,1001.19
2011,11,23,13,59,1001.15
2011,11,23,14,00,1001.15
2011,11,23,14,01,1001.19
2011,11,23,14,02,1001.19
2011,11,23,14,03,1001.22
2011,11,23,14,04,1001.22
2011,11,23,14,05,1001.25
2011,11,23,14,06,1001.31
2011,11,23,14,07,1001.26
2011,11,23,14,08,1001.31
2011,11,23,14,09,1001.36
2011,11,23,14,10,1001.39
2011,11,23,14,11,1001.39
2011,11,23,14,12,1001.39
2011,11,23,14,13,1001.39
2011,11,23,14,14,1001.36
2011,11,23,14,15,1001.36
2011,11,23,14,16,1001.39
2011,11,23,14,17,1001.33
2011,11,23,14,18,1001.32
2011,11,23,14,19,1001.32
2011,11,23,14,20,1001.32
2011,11,23,14,21,1001.36
2011,11,23,14,22,1001.36
2011,11,23,14,23,1001.36
2011,11,23,14,24,1001.36
2011,11,23,14,25,1001.39
2011,11,23,14,26,1001.45
2011,11,23,14,27,1001.42
2011,11,23,14,28,1001.42
2011,11,23,14,29,1001.46
2011,11,23,14,30,1001.46
2011,11,23,14,31,1001.46
2011,11,23,14,32,1001.49
2011,11,23,14,33,1001.52
2011,11,23,14,34,1001.49
2011,11,23,14,35,1001.52
2011,11,23,14,36,1001.52
2011,11,23,14,37,1001.56
2011,11,23,14,38,1001.53
2011,11,23,14,39,1001.56
2011,11,23,14,40,1001.56
2011,11,23,14,41,1001.52
2011,11,23,14,42,1001.58
2011,11,23,14,43,1001.59
2011,11,23,14,44,1001.59
2011,11,23,14,45,1001.63
2011,11,23,14,46,1001.66
2011,11,23,14,47,1001.69
2011,11,23,14,48,1001.73
2011,11,23,14,49,1001.69
2011,11,23,14,50,1001.69
2011,11,23,14,51,1001.69
2011,11,23,14,52,1001.73
2011,11,23,14,53,1001.73
2011,11,23,14,54,1001.76
2011,11,23,14,55,1001.80
2011,11,23,14,56,1001.83
2011,11,23,14,57,1001.83
2011,11,23,14,58,1001.89
2011,11,23,14,59,1001.86
2011,11,23,15,00,1001.90
2011,11,23,15,01,1001.90
2011,11,23,15,02,1001.93
2011,11,23,15,03,1001.99
2011,11,23,15,04,1002.03
2011,11,23,15,05,1002.06
2011,11,23,15,06,1002.07
2011,11,23,15,07,1002.03
2011,11,23,15,08,1002.07
2011,11,23,15,09,1002.03
2011,11,23,15,10,1002.03
2011,11,23,15,11,1002.03
2011,11,23,15,12,1002.00
2011,11,23,15,13,1002.03
2011,11,23,15,14,1002.03
2011,11,23,15,15,1002.03
2011,11,23,15,16,1002.07
2011,11,23,15,17,1002.12
2011,11,23,15,18,1002.13
2011,11,23,15,19,1002.10
2011,11,23,15,20,1002.13
2011,11,23,15,21,1002.13
2011,11,23,15,22,1002.19
2011,11,23,15,23,1002.20
2011,11,23,15,24,1002.14
2011,11,23,15,25,1002.17
2011,11,23,15,26,1002.13
2011,11,23,15,27,1002.17
2011,11,23,15,28,1002.17
2011,11,23,15,29,1002.20
2011,11,23,15,30,1002.20
2011,11,23,15,31,1002.20
2011,11,23,15,32,1002.24
2011,11,23,15,33,1002.18
2011,11,23,15,34,1002.17
2011,11,23,15,35,1002.20
2011,11,23,15,36,1002.24
2011,11,23,15,37,1002.20
2011,11,23,15,38,1002.29
2011,11,23,15,39,1002.27
2011,11,23,15,40,1002.30
2011,11,23,15,41,1002.33
2011,11,23,15,42,1002.37
2011,11,23,15,43,1002.37
2011,11,23,15,44,1002.43
2011,11,23,15,45,1002.44
2011,11,23,15,46,1002.47
2011,11,23,15,47,1002.53
2011,11,23,15,48,1002.54
2011,11,23,15,49,1002.57
2011,11,23,15,50,1002.52
2011,11,23,15,51,1002.56
2011,11,23,15,52,1002.57
2011,11,23,15,53,1002.57
2011,11,23,15,54,1002.61
2011,11,23,15,55,1002.61
2011,11,23,15,56,1002.64
2011,11,23,15,57,1002.64
2011,11,23,15,58,1002.70
2011,11,23,15,59,1002.68
2011,11,23,16,00,1002.71
2011,11,23,16,01,1002.71
2011,11,23,16,02,1002.74
2011,11,23,16,03,1002.78
2011,11,23,16,04,1002.74
2011,11,23,16,05,1002.78
2011,11,23,16,06,1002.81
2011,11,23,16,07,1002.78
2011,11,23,16,08,1002.81
2011,11,23,16,09,1002.81
2011,11,23,16,10,1002.84
2011,11,23,16,11,1002.88
2011,11,23,16,12,1002.91
2011,11,23,16,13,1002.91
2011,11,23,16,14,1002.91
2011,11,23,16,15,1002.95
2011,11,23,16,16,1002.91
2011,11,23,16,17,1002.91
2011,11,23,16,18,1002.91
2011,11,23,16,19,1002.95
2011,11,23,16,20,1002.95
2011,11,23,16,21,1002.91
2011,11,23,16,22,1002.88
2011,11,23,16,23,1002.88
2011,11,23,16,24,1002.91
2011,11,23,16,25,1002.91
2011,11,23,16,26,1002.91
2011,11,23,16,27,1002.95